| time (UTC) | temp F | wind direction | speed knots | gust knots | rain 1hr in | rain 24hr in | rain mn in | humidity % | barometer mb |
| 20260905194906 | 98 | 32 | 2.6 | 4.3 | 0.00 | 0.00 | 0.00 | 30 | 1013.8 |
| 20260905194406 | 96 | 291 | 1.7 | 2.6 | 0.00 | 0.00 | 0.00 | 32 | 1013.9 |
| 20260905193906 | 96 | 298 | 4.3 | 5.2 | 0.00 | 0.00 | 0.00 | 31 | 1013.8 |
| 20260905193401 | 96 | 274 | 2.6 | 2.6 | 0.00 | 0.00 | 0.00 | 32 | 1013.8 |
| 20260905192856 | 96 | 250 | 0.9 | 1.7 | 0.00 | 0.00 | 0.00 | 31 | 1013.6 |
| 20260905192351 | 96 | 325 | 3.5 | 5.2 | 0.00 | 0.00 | 0.00 | 33 | 1014.0 |
| 20260905191851 | 95 | 136 | 0.9 | 0.9 | 0.00 | 0.00 | 0.00 | 33 | 1014.1 |
| 20260905191349 | 95 | 294 | 1.7 | 2.6 | 0.00 | 0.00 | 0.00 | 34 | 1014.3 |
| 20260905190844 | 96 | 322 | 1.7 | 1.7 | 0.00 | 0.00 | 0.00 | 34 | 1014.4 |
| 20260905190343 | 95 | 352 | 0.9 | 0.9 | 0.00 | 0.00 | 0.00 | 33 | 1014.4 |
| 20260905185841 | 95 | 188 | 2.6 | 1.7 | 0.00 | 0.00 | 0.00 | 34 | 1014.2 |
| 20260905185337 | 94 | 258 | 5.2 | 6.1 | 0.00 | 0.00 | 0.00 | 35 | 1014.4 |
| 20260905184836 | 94 | 278 | 0.9 | 0.9 | 0.00 | 0.00 | 0.00 | 37 | 1014.4 |
| 20260905184335 | 94 | 285 | 2.6 | 2.6 | 0.00 | 0.00 | 0.00 | 36 | 1014.7 |
| 20260905183834 | 95 | 246 | 2.6 | 2.6 | 0.00 | 0.00 | 0.00 | 35 | 1014.6 |
| 20260905183329 | 95 | 278 | 1.7 | 1.7 | 0.00 | 0.00 | 0.00 | 36 | 1014.8 |
| 20260905182824 | 93 | 158 | 0.9 | 0.0 | 0.00 | 0.00 | 0.00 | 35 | 1014.9 |
| 20260905182323 | 93 | 261 | 3.5 | 4.3 | 0.00 | 0.00 | 0.00 | 36 | 1014.8 |
| 20260905181819 | 94 | 315 | 1.7 | 2.6 | 0.00 | 0.00 | 0.00 | 36 | 1015.0 |
| 20260905181318 | 93 | 253 | 2.6 | 1.7 | 0.00 | 0.00 | 0.00 | 35 | 1014.9 |
| 20260905180818 | 93 | 272 | 2.6 | 2.6 | 0.00 | 0.00 | 0.00 | 36 | 1015.2 |
| 20260905180313 | 93 | 214 | 1.7 | 1.7 | 0.00 | 0.00 | 0.00 | 36 | 1015.2 |
| 20260905175808 | 93 | 352 | 0.0 | 0.0 | 0.00 | 0.00 | 0.00 | 37 | 1014.9 |
| 20260905175306 | 93 | 299 | 3.5 | 4.3 | 0.00 | 0.00 | 0.00 | 36 | 1015.3 |
| 20260905174758 | 93 | 297 | 2.6 | 4.3 | 0.00 | 0.00 | 0.00 | 37 | 1015.2 |
| 20260905174253 | 93 | 259 | 0.9 | 0.9 | 0.00 | 0.00 | 0.00 | 38 | 1015.2 |
| 20260905173749 | 94 | 297 | 1.7 | 1.7 | 0.00 | 0.00 | 0.00 | 38 | 1015.3 |
| 20260905173245 | 93 | 89 | 0.9 | 0.9 | 0.00 | 0.00 | 0.00 | 39 | 1015.2 |
| 20260905172744 | 94 | 277 | 0.9 | 0.9 | 0.00 | 0.00 | 0.00 | 37 | 1015.3 |
| 20260905172243 | 93 | 306 | 0.9 | 1.7 | 0.00 | 0.00 | 0.00 | 36 | 1015.4 |
| 20260905171740 | 91 | 318 | 0.9 | 0.9 | 0.00 | 0.00 | 0.00 | 40 | 1015.4 |
| 20260905171236 | 91 | 32 | 1.7 | 1.7 | 0.00 | 0.00 | 0.00 | 41 | 1015.5 |
| 20260905170732 | 91 | 22 | 0.9 | 0.9 | 0.00 | 0.00 | 0.00 | 39 | 1015.5 |
| 20260905170228 | 91 | 250 | 0.0 | 0.0 | 0.00 | 0.00 | 0.00 | 39 | 1015.4 |
| 20260905165726 | 91 | 229 | 0.9 | 0.9 | 0.00 | 0.00 | 0.00 | 41 | 1015.7 |
| 20260905165217 | 90 | 66 | 0.0 | 0.0 | 0.00 | 0.00 | 0.00 | 41 | 1015.5 |
| 20260905164717 | 90 | 93 | 1.7 | 1.7 | 0.00 | 0.00 | 0.00 | 42 | 1015.5 |
| 20260905164217 | 90 | 221 | 1.7 | 1.7 | 0.00 | 0.00 | 0.00 | 42 | 1015.6 |
| 20260905163712 | 91 | 252 | 2.6 | 2.6 | 0.00 | 0.00 | 0.00 | 41 | 1015.5 |
| 20260905163209 | 90 | 92 | 0.0 | 0.0 | 0.00 | 0.00 | 0.00 | 43 | 1015.6 |
| 20260905162705 | 90 | 119 | 0.0 | 0.0 | 0.00 | 0.00 | 0.00 | 43 | 1015.4 |
| 20260905162204 | 90 | 95 | 1.7 | 1.7 | 0.00 | 0.00 | 0.00 | 43 | 1015.6 |
| 20260905161700 | 90 | 70 | 0.9 | 1.7 | 0.00 | 0.00 | 0.00 | 43 | 1015.4 |
| 20260905161157 | 89 | 102 | 0.9 | 0.9 | 0.00 | 0.00 | 0.00 | 44 | 1015.5 |
| 20260905160656 | 89 | 91 | 0.0 | 0.9 | 0.00 | 0.00 | 0.00 | 43 | 1015.7 |
| 20260905160155 | 89 | 106 | 0.9 | 0.9 | 0.00 | 0.00 | 0.00 | 45 | 1015.4 |
| 20260905155650 | 90 | 85 | 0.9 | 0.9 | 0.00 | 0.00 | 0.00 | 44 | 1015.4 |
| 20260905155149 | 90 | 81 | 0.9 | 0.9 | 0.00 | 0.00 | 0.00 | 43 | 1015.3 |
| 20260905154644 | 90 | 97 | 0.0 | 0.0 | 0.00 | 0.00 | 0.00 | 43 | 1015.4 |
| 20260905154139 | 89 | 111 | 0.0 | 0.0 | 0.00 | 0.00 | 0.00 | 45 | 1015.5 |
| 20260905153635 | 88 | 103 | 0.0 | 0.0 | 0.00 | 0.00 | 0.00 | 46 | 1015.3 |
| 20260905153130 | 88 | 132 | 0.9 | 0.9 | 0.00 | 0.00 | 0.00 | 46 | 1015.6 |
| 20260905152625 | 87 | 120 | 0.0 | 0.0 | 0.00 | 0.00 | 0.00 | 50 | 1015.8 |
| 20260905152120 | 86 | 63 | 0.0 | 0.0 | 0.00 | 0.00 | 0.00 | 50 | 1015.5 |
| 20260905151615 | 85 | 63 | 0.9 | 0.9 | 0.00 | 0.00 | 0.00 | 51 | 1015.6 |
| 20260905151110 | 84 | 105 | 0.9 | 0.9 | 0.00 | 0.00 | 0.00 | 53 | 1015.3 |
| 20260905150606 | 85 | 82 | 1.7 | 1.7 | 0.00 | 0.00 | 0.00 | 54 | 1015.5 |
| 20260905150103 | 85 | 76 | 0.9 | 0.9 | 0.00 | 0.00 | 0.00 | 53 | 1015.3 |
| 20260905145556 | 85 | 76 | 0.9 | 0.9 | 0.00 | 0.00 | 0.00 | 52 | 1015.6 |
| 20260905145056 | 85 | 77 | 0.0 | 0.0 | 0.00 | 0.00 | 0.00 | 54 | 1015.5 |
| 20260905144551 | 84 | 76 | 0.0 | 0.0 | 0.00 | 0.00 | 0.00 | 55 | 1015.5 |
| 20260905144050 | 82 | 76 | 0.0 | 0.0 | 0.00 | 0.00 | 0.00 | 57 | 1015.5 |
| 20260905143550 | 82 | 78 | 0.9 | 0.9 | 0.00 | 0.00 | 0.00 | 58 | 1015.6 |
| 20260905143045 | 82 | 84 | 0.0 | 0.9 | 0.00 | 0.00 | 0.00 | 59 | 1015.6 |
| 20260905142544 | 82 | 87 | 0.0 | 0.0 | 0.00 | 0.00 | 0.00 | 57 | 1015.5 |
| 20260905142039 | 81 | 103 | 0.9 | 0.9 | 0.00 | 0.00 | 0.00 | 58 | 1015.2 |
| 20260905141538 | 80 | 107 | 0.9 | 0.9 | 0.00 | 0.00 | 0.00 | 60 | 1015.3 |
| 20260905141035 | 79 | 114 | 0.9 | 0.9 | 0.00 | 0.00 | 0.00 | 63 | 1015.3 |
| 20260905140530 | 78 | 126 | 0.9 | 0.9 | 0.00 | 0.00 | 0.00 | 65 | 1015.3 |
| 20260905140029 | 78 | 127 | 0.0 | 0.0 | 0.00 | 0.00 | 0.00 | 65 | 1015.0 |
| 20260905135525 | 78 | 126 | 0.0 | 0.0 | 0.00 | 0.00 | 0.00 | 65 | 1014.9 |
| 20260905135019 | 78 | 108 | 0.9 | 0.9 | 0.00 | 0.00 | 0.00 | 65 | 1014.9 |
| 20260905134514 | 77 | 85 | 0.0 | 0.0 | 0.00 | 0.00 | 0.00 | 66 | 1014.8 |
| 20260905134013 | 76 | 85 | 0.0 | 0.0 | 0.00 | 0.00 | 0.00 | 69 | 1014.7 |
| 20260905133508 | 75 | 85 | 0.9 | 0.9 | 0.00 | 0.00 | 0.00 | 72 | 1014.6 |
| 20260905133002 | 74 | 85 | 0.0 | 0.0 | 0.00 | 0.00 | 0.00 | 73 | 1014.6 |
| 20260905132457 | 74 | 85 | 0.0 | 0.0 | 0.00 | 0.00 | 0.00 | 72 | 1014.5 |
| 20260905131951 | 74 | 85 | 0.0 | 0.0 | 0.00 | 0.00 | 0.00 | 73 | 1014.4 |
| 20260905131447 | 74 | 85 | 0.0 | 0.9 | 0.00 | 0.00 | 0.00 | 74 | 1014.4 |
| 20260905130948 | 73 | 85 | 0.0 | 0.0 | 0.00 | 0.00 | 0.00 | 74 | 1014.3 |
| 20260905130441 | 73 | 85 | 0.0 | 0.0 | 0.00 | 0.00 | 0.00 | 75 | 1014.4 |
| 20260905125941 | 73 | 85 | 0.0 | 0.9 | 0.00 | 0.00 | 0.00 | 76 | 1014.5 |
| 20260905125436 | 73 | 85 | 0.0 | 0.0 | 0.00 | 0.00 | 0.00 | 75 | 1014.3 |
| 20260905124932 | 74 | 85 | 0.0 | 0.0 | 0.00 | 0.00 | 0.00 | 75 | 1014.4 |
| 20260905124428 | 74 | 85 | 0.0 | 0.0 | 0.00 | 0.00 | 0.00 | 74 | 1014.3 |
| 20260905123928 | 74 | 85 | 0.0 | 0.0 | 0.00 | 0.00 | 0.00 | 73 | 1014.1 |
| 20260905123425 | 74 | 85 | 0.0 | 0.0 | 0.00 | 0.00 | 0.00 | 73 | 1014.1 |
| 20260905122920 | 74 | 85 | 0.0 | 0.0 | 0.00 | 0.00 | 0.00 | 73 | 1014.2 |
| 20260905122419 | 73 | 85 | 0.0 | 0.0 | 0.00 | 0.00 | 0.00 | 74 | 1014.2 |
| 20260905121915 | 74 | 85 | 0.0 | 0.0 | 0.00 | 0.00 | 0.00 | 73 | 1014.0 |
| 20260905121411 | 74 | 85 | 0.0 | 0.0 | 0.00 | 0.00 | 0.00 | 72 | 1014.1 |
| 20260905120910 | 74 | 85 | 0.0 | 0.0 | 0.00 | 0.00 | 0.00 | 71 | 1014.0 |
| 20260905120410 | 75 | 85 | 0.0 | 0.0 | 0.00 | 0.00 | 0.00 | 71 | 1013.9 |
| 20260905115905 | 75 | 85 | 0.0 | 0.0 | 0.00 | 0.00 | 0.00 | 70 | 1014.1 |
| 20260905115404 | 75 | 85 | 0.0 | 0.0 | 0.00 | 0.00 | 0.00 | 70 | 1014.1 |
| 20260905114859 | 74 | 85 | 0.0 | 0.9 | 0.00 | 0.00 | 0.00 | 71 | 1013.9 |
| 20260905114358 | 74 | 84 | 0.0 | 0.0 | 0.00 | 0.00 | 0.00 | 72 | 1013.9 |
| 20260905113858 | 75 | 84 | 0.0 | 0.0 | 0.00 | 0.00 | 0.00 | 71 | 1014.1 |
| 20260905113353 | 75 | 84 | 0.0 | 0.0 | 0.00 | 0.00 | 0.00 | 70 | 1013.9 |
| 20260905112848 | 75 | 84 | 0.0 | 0.0 | 0.00 | 0.00 | 0.00 | 70 | 1013.9 |
| 20260905112344 | 75 | 84 | 0.0 | 0.0 | 0.00 | 0.00 | 0.00 | 70 | 1014.0 |
| 20260905111839 | 75 | 84 | 0.0 | 0.0 | 0.00 | 0.00 | 0.00 | 70 | 1014.1 |
| 20260905111338 | 75 | 84 | 0.0 | 0.0 | 0.00 | 0.00 | 0.00 | 69 | 1014.2 |
| 20260905110838 | 75 | 84 | 0.0 | 0.0 | 0.00 | 0.00 | 0.00 | 69 | 1014.1 |
| 20260905110332 | 75 | 84 | 0.0 | 0.0 | 0.00 | 0.00 | 0.00 | 69 | 1014.0 |
| 20260905105828 | 75 | 84 | 0.0 | 0.9 | 0.00 | 0.00 | 0.00 | 69 | 1014.0 |
| 20260905105327 | 75 | 84 | 0.0 | 0.0 | 0.00 | 0.00 | 0.00 | 69 | 1014.0 |
| 20260905104821 | 75 | 84 | 0.0 | 0.0 | 0.00 | 0.00 | 0.00 | 70 | 1013.8 |
| 20260905104318 | 75 | 84 | 0.0 | 0.0 | 0.00 | 0.00 | 0.00 | 70 | 1014.1 |
| 20260905103817 | 75 | 84 | 0.0 | 0.0 | 0.00 | 0.00 | 0.00 | 69 | 1014.0 |
| 20260905103312 | 76 | 84 | 0.0 | 0.0 | 0.00 | 0.00 | 0.00 | 68 | 1014.0 |
| 20260905102809 | 76 | 84 | 0.0 | 0.0 | 0.00 | 0.00 | 0.00 | 67 | 1014.0 |
| 20260905102306 | 76 | 84 | 0.0 | 0.0 | 0.00 | 0.00 | 0.00 | 67 | 1014.1 |
| 20260905101804 | 76 | 84 | 0.0 | 0.0 | 0.00 | 0.00 | 0.00 | 67 | 1014.1 |
| 20260905101303 | 76 | 84 | 0.0 | 0.0 | 0.00 | 0.00 | 0.00 | 67 | 1013.9 |
| 20260905100757 | 76 | 84 | 0.0 | 0.9 | 0.00 | 0.00 | 0.00 | 67 | 1014.0 |
| 20260905100253 | 76 | 84 | 0.0 | 0.0 | 0.00 | 0.00 | 0.00 | 67 | 1014.1 |
| 20260905095753 | 76 | 84 | 0.0 | 0.0 | 0.00 | 0.00 | 0.00 | 67 | 1014.0 |
| 20260905095247 | 77 | 84 | 0.0 | 0.0 | 0.00 | 0.00 | 0.00 | 67 | 1014.2 |
| 20260905094742 | 77 | 84 | 0.0 | 0.0 | 0.00 | 0.00 | 0.00 | 66 | 1014.3 |
| 20260905094238 | 77 | 84 | 0.0 | 0.0 | 0.00 | 0.00 | 0.00 | 66 | 1013.9 |
| 20260905093736 | 77 | 84 | 0.0 | 0.0 | 0.00 | 0.00 | 0.00 | 66 | 1013.9 |
| 20260905093232 | 77 | 84 | 0.0 | 0.0 | 0.00 | 0.00 | 0.00 | 65 | 1014.0 |
| 20260905092728 | 77 | 84 | 0.0 | 0.0 | 0.00 | 0.00 | 0.00 | 65 | 1014.1 |
| 20260905092223 | 77 | 84 | 0.9 | 0.9 | 0.00 | 0.00 | 0.00 | 65 | 1014.1 |
| 20260905091722 | 77 | 84 | 0.9 | 0.9 | 0.00 | 0.00 | 0.00 | 65 | 1014.1 |
| 20260905091218 | 77 | 85 | 0.9 | 0.9 | 0.00 | 0.00 | 0.00 | 65 | 1014.0 |
| 20260905090717 | 77 | 86 | 0.9 | 0.9 | 0.00 | 0.00 | 0.00 | 65 | 1014.2 |
| 20260905090213 | 77 | 86 | 0.0 | 0.0 | 0.00 | 0.00 | 0.00 | 64 | 1014.0 |
| 20260905085711 | 78 | 87 | 0.0 | 0.0 | 0.00 | 0.00 | 0.00 | 64 | 1013.8 |
| 20260905085206 | 78 | 86 | 0.0 | 0.0 | 0.00 | 0.00 | 0.00 | 64 | 1014.2 |
| 20260905084701 | 78 | 87 | 0.0 | 0.0 | 0.00 | 0.00 | 0.00 | 64 | 1014.0 |
| 20260905084201 | 78 | 86 | 0.9 | 0.0 | 0.00 | 0.00 | 0.00 | 64 | 1014.1 |
| 20260905083655 | 78 | 86 | 0.0 | 0.0 | 0.00 | 0.00 | 0.00 | 63 | 1014.3 |
| 20260905083152 | 78 | 86 | 0.0 | 0.0 | 0.00 | 0.00 | 0.00 | 63 | 1014.1 |
| 20260905082647 | 77 | 96 | 0.0 | 0.0 | 0.00 | 0.00 | 0.00 | 63 | 1014.1 |
| 20260905082142 | 77 | 97 | 0.0 | 0.0 | 0.00 | 0.00 | 0.00 | 64 | 1013.9 |
| 20260905081637 | 78 | 97 | 0.0 | 0.0 | 0.00 | 0.00 | 0.00 | 63 | 1014.2 |
| 20260905081132 | 78 | 96 | 0.0 | 0.0 | 0.00 | 0.00 | 0.00 | 62 | 1014.1 |
| 20260905080627 | 79 | 97 | 0.0 | 0.0 | 0.00 | 0.00 | 0.00 | 60 | 1014.1 |
| 20260905080121 | 79 | 96 | 0.0 | 0.0 | 0.00 | 0.00 | 0.00 | 60 | 1014.4 |
| 20260905075620 | 79 | 96 | 0.0 | 0.0 | 0.00 | 0.00 | 0.00 | 59 | 1014.2 |
| 20260905075120 | 80 | 96 | 0.0 | 0.0 | 0.00 | 0.00 | 0.00 | 58 | 1014.2 |
| 20260905074619 | 79 | 96 | 0.0 | 0.0 | 0.00 | 0.00 | 0.00 | 59 | 1014.3 |
| 20260905074115 | 80 | 96 | 0.0 | 0.0 | 0.00 | 0.00 | 0.00 | 58 | 1014.4 |
| 20260905073610 | 80 | 96 | 0.0 | 0.0 | 0.00 | 0.00 | 0.00 | 57 | 1014.2 |
| 20260905073106 | 80 | 96 | 0.0 | 0.0 | 0.00 | 0.00 | 0.00 | 57 | 1014.3 |
| 20260905072605 | 80 | 94 | 0.9 | 0.9 | 0.00 | 0.00 | 0.00 | 57 | 1014.3 |
| 20260905072101 | 80 | 95 | 0.9 | 0.9 | 0.00 | 0.00 | 0.00 | 56 | 1014.1 |
| 20260905071557 | 80 | 95 | 0.0 | 0.0 | 0.00 | 0.00 | 0.00 | 56 | 1014.4 |
| 20260905071057 | 81 | 95 | 0.0 | 0.0 | 0.00 | 0.00 | 0.00 | 56 | 1014.3 |
| 20260905070553 | 81 | 95 | 0.0 | 0.0 | 0.00 | 0.00 | 0.00 | 55 | 1014.3 |
| 20260905070048 | 81 | 95 | 0.0 | 0.0 | 0.00 | 0.00 | 0.00 | 55 | 1014.1 |
| 20260905065546 | 81 | 94 | 0.0 | 0.0 | 0.00 | 0.00 | 0.00 | 55 | 1014.1 |
| 20260905065042 | 82 | 94 | 0.0 | 0.0 | 0.00 | 0.00 | 0.00 | 54 | 1014.1 |
| 20260905064542 | 82 | 101 | 0.9 | 0.9 | 0.00 | 0.00 | 0.00 | 53 | 1014.3 |
| 20260905064037 | 82 | 101 | 0.0 | 0.0 | 0.00 | 0.00 | 0.00 | 53 | 1014.2 |
| 20260905063536 | 82 | 89 | 0.9 | 0.9 | 0.00 | 0.00 | 0.00 | 53 | 1014.1 |
| 20260905063032 | 82 | 101 | 0.0 | 0.0 | 0.00 | 0.00 | 0.00 | 53 | 1013.8 |
| 20260905062532 | 82 | 101 | 0.9 | 0.9 | 0.00 | 0.00 | 0.00 | 53 | 1014.1 |
| 20260905062027 | 82 | 61 | 0.9 | 0.9 | 0.00 | 0.00 | 0.00 | 53 | 1014.0 |
| 20260905061522 | 83 | 116 | 0.0 | 0.0 | 0.00 | 0.00 | 0.00 | 52 | 1014.0 |
| 20260905061021 | 83 | 187 | 1.7 | 1.7 | 0.00 | 0.00 | 0.00 | 51 | 1013.9 |
| 20260905060517 | 83 | 182 | 1.7 | 1.7 | 0.00 | 0.00 | 0.00 | 51 | 1014.0 |
| 20260905060013 | 84 | 183 | 0.0 | 0.0 | 0.00 | 0.00 | 0.00 | 51 | 1014.0 |
| 20260905055511 | 84 | 157 | 0.9 | 0.9 | 0.00 | 0.00 | 0.00 | 51 | 1014.1 |
| 20260905055006 | 84 | 170 | 1.7 | 1.7 | 0.00 | 0.00 | 0.00 | 51 | 1014.0 |
| 20260905054502 | 84 | 152 | 0.9 | 0.9 | 0.00 | 0.00 | 0.00 | 51 | 1013.8 |
| 20260905053957 | 84 | 134 | 0.9 | 0.9 | 0.00 | 0.00 | 0.00 | 51 | 1014.0 |
| 20260905053451 | 84 | 148 | 0.9 | 0.9 | 0.00 | 0.00 | 0.00 | 51 | 1013.8 |
| 20260905052948 | 84 | 150 | 0.0 | 0.0 | 0.00 | 0.00 | 0.00 | 51 | 1013.9 |
| 20260905052447 | 84 | 138 | 0.9 | 0.9 | 0.00 | 0.00 | 0.00 | 51 | 1013.6 |
| 20260905051946 | 84 | 145 | 0.0 | 0.0 | 0.00 | 0.00 | 0.00 | 51 | 1013.8 |
| 20260905051441 | 84 | 129 | 0.0 | 0.0 | 0.00 | 0.00 | 0.00 | 51 | 1013.6 |
| 20260905050939 | 84 | 127 | 0.0 | 0.0 | 0.00 | 0.00 | 0.00 | 51 | 1013.8 |
| 20260905050435 | 84 | 126 | 0.9 | 0.9 | 0.00 | 0.00 | 0.00 | 51 | 1013.8 |
| 20260905045930 | 84 | 114 | 0.9 | 0.9 | 0.00 | 0.00 | 0.00 | 50 | 1013.5 |
| 20260905045425 | 84 | 115 | 0.0 | 0.0 | 0.00 | 0.00 | 0.00 | 49 | 1013.4 |
| 20260905044921 | 84 | 115 | 0.0 | 0.0 | 0.00 | 0.00 | 0.00 | 48 | 1013.3 |
| 20260905044410 | 84 | 121 | 0.0 | 0.0 | 0.00 | 0.00 | 0.00 | 47 | 1013.3 |
| 20260905043909 | 84 | 121 | 0.0 | 0.0 | 0.00 | 0.00 | 0.00 | 46 | 1013.5 |
| 20260905043404 | 85 | 121 | 0.0 | 0.0 | 0.00 | 0.00 | 0.00 | 45 | 1013.2 |
| 20260905042903 | 85 | 234 | 0.9 | 0.9 | 0.00 | 0.00 | 0.00 | 44 | 1013.4 |
| 20260905042358 | 85 | 234 | 0.0 | 0.0 | 0.00 | 0.00 | 0.00 | 44 | 1013.5 |
| 20260905041853 | 85 | 234 | 0.0 | 0.0 | 0.00 | 0.00 | 0.00 | 44 | 1013.3 |
| 20260905041349 | 86 | 235 | 0.0 | 0.0 | 0.00 | 0.00 | 0.00 | 43 | 1013.5 |
| 20260905040844 | 86 | 234 | 0.0 | 0.0 | 0.00 | 0.00 | 0.00 | 43 | 1013.4 |
| 20260905040343 | 87 | 230 | 0.0 | 0.0 | 0.00 | 0.00 | 0.00 | 41 | 1013.4 |
| 20260905035842 | 87 | 230 | 0.0 | 0.0 | 0.00 | 0.00 | 0.00 | 40 | 1013.3 |
| 20260905035338 | 87 | 229 | 0.0 | 0.0 | 0.00 | 0.00 | 0.00 | 40 | 1013.2 |
| 20260905034834 | 87 | 229 | 0.0 | 0.0 | 0.00 | 0.00 | 0.00 | 40 | 1013.4 |
| 20260905034330 | 87 | 272 | 0.0 | 0.0 | 0.00 | 0.00 | 0.00 | 40 | 1013.2 |
| 20260905033828 | 87 | 273 | 0.0 | 0.0 | 0.00 | 0.00 | 0.00 | 39 | 1013.2 |
| 20260905033324 | 87 | 313 | 0.0 | 0.0 | 0.00 | 0.00 | 0.00 | 39 | 1013.3 |
| 20260905032823 | 87 | 256 | 1.7 | 1.7 | 0.00 | 0.00 | 0.00 | 40 | 1012.9 |
| 20260905032319 | 86 | 311 | 0.0 | 0.0 | 0.00 | 0.00 | 0.00 | 39 | 1013.0 |
| 20260905031814 | 86 | 316 | 0.0 | 0.0 | 0.00 | 0.00 | 0.00 | 39 | 1013.0 |
| 20260905031310 | 86 | 316 | 0.0 | 0.0 | 0.00 | 0.00 | 0.00 | 39 | 1012.9 |
| 20260905030805 | 87 | 316 | 0.0 | 0.0 | 0.00 | 0.00 | 0.00 | 37 | 1012.9 |
| 20260905030300 | 87 | 316 | 0.0 | 0.0 | 0.00 | 0.00 | 0.00 | 37 | 1012.7 |
| 20260905025759 | 88 | 316 | 0.0 | 0.0 | 0.00 | 0.00 | 0.00 | 36 | 1012.5 |
| 20260905025255 | 88 | 316 | 0.0 | 0.0 | 0.00 | 0.00 | 0.00 | 36 | 1012.7 |
| 20260905024751 | 89 | 316 | 0.0 | 0.0 | 0.00 | 0.00 | 0.00 | 35 | 1012.6 |
| 20260905024246 | 88 | 316 | 0.0 | 0.0 | 0.00 | 0.00 | 0.00 | 34 | 1012.5 |
| 20260905023741 | 88 | 316 | 0.0 | 0.0 | 0.00 | 0.00 | 0.00 | 34 | 1012.2 |
| 20260905023236 | 88 | 316 | 0.0 | 0.0 | 0.00 | 0.00 | 0.00 | 34 | 1011.9 |
| 20260905022735 | 88 | 317 | 0.0 | 0.0 | 0.00 | 0.00 | 0.00 | 34 | 1012.0 |
| 20260905022231 | 89 | 325 | 0.0 | 0.0 | 0.00 | 0.00 | 0.00 | 34 | 1011.9 |
| 20260905021725 | 89 | 325 | 0.0 | 0.0 | 0.00 | 0.00 | 0.00 | 34 | 1012.0 |
| 20260905021220 | 89 | 325 | 0.0 | 0.0 | 0.00 | 0.00 | 0.00 | 33 | 1012.0 |
| 20260905020715 | 89 | 325 | 0.0 | 0.0 | 0.00 | 0.00 | 0.00 | 33 | 1011.8 |
| 20260905020210 | 89 | 334 | 0.0 | 0.0 | 0.00 | 0.00 | 0.00 | 33 | 1012.0 |
| 20260905015709 | 90 | 339 | 0.0 | 0.0 | 0.00 | 0.00 | 0.00 | 32 | 1011.9 |
| 20260905015209 | 90 | 319 | 0.0 | 0.0 | 0.00 | 0.00 | 0.00 | 32 | 1011.9 |
| 20260905014707 | 90 | 11 | 0.0 | 0.0 | 0.00 | 0.00 | 0.00 | 32 | 1011.8 |
| 20260905014203 | 91 | 11 | 0.9 | 0.9 | 0.00 | 0.00 | 0.00 | 31 | 1011.8 |
| 20260905013659 | 91 | 3 | 0.9 | 0.9 | 0.00 | 0.00 | 0.00 | 30 | 1011.6 |
| 20260905013154 | 91 | 28 | 0.0 | 0.0 | 0.00 | 0.00 | 0.00 | 30 | 1011.6 |
| 20260905012650 | 92 | 18 | 0.9 | 0.0 | 0.00 | 0.00 | 0.00 | 30 | 1011.8 |
| 20260905012146 | 92 | 305 | 0.9 | 0.9 | 0.00 | 0.00 | 0.00 | 29 | 1011.8 |
| 20260905011642 | 92 | 329 | 0.9 | 1.7 | 0.00 | 0.00 | 0.00 | 29 | 1011.8 |
| 20260905011138 | 93 | 265 | 1.7 | 1.7 | 0.00 | 0.00 | 0.00 | 28 | 1011.6 |
| 20260905010632 | 93 | 335 | 0.9 | 1.7 | 0.00 | 0.00 | 0.00 | 29 | 1011.5 |
| 20260905010128 | 94 | 14 | 0.9 | 0.9 | 0.00 | 0.00 | 0.00 | 29 | 1011.6 |
| 20260905005624 | 95 | 359 | 1.7 | 1.7 | 0.00 | 0.00 | 0.00 | 29 | 1011.4 |
| 20260905005120 | 95 | 355 | 2.6 | 4.3 | 0.00 | 0.00 | 0.00 | 28 | 1011.8 |
| 20260905004619 | 95 | 286 | 1.7 | 1.7 | 0.00 | 0.00 | 0.00 | 28 | 1011.4 |
| 20260905004114 | 95 | 277 | 1.7 | 1.7 | 0.00 | 0.00 | 0.00 | 29 | 1011.4 |
| 20260905003610 | 96 | 285 | 2.6 | 7.0 | 0.00 | 0.00 | 0.00 | 29 | 1011.5 |
| 20260905003106 | 95 | 309 | 0.9 | 0.9 | 0.00 | 0.00 | 0.00 | 29 | 1011.6 |
| 20260905002601 | 96 | 342 | 1.7 | 1.7 | 0.00 | 0.00 | 0.00 | 29 | 1011.3 |
| 20260905002056 | 96 | 14 | 1.7 | 2.6 | 0.00 | 0.00 | 0.00 | 29 | 1011.3 |
| 20260905001551 | 95 | 338 | 0.0 | 0.0 | 0.00 | 0.00 | 0.00 | 31 | 1011.3 |
| 20260905001050 | 95 | 57 | 0.9 | 0.9 | 0.00 | 0.00 | 0.00 | 30 | 1011.3 |
| 20260905000546 | 94 | 312 | 0.9 | 0.9 | 0.00 | 0.00 | 0.00 | 32 | 1011.2 |
| 20260905000042 | 95 | 332 | 0.9 | 0.9 | 0.00 | 0.00 | 0.00 | 32 | 1011.3 |
| 20260904235537 | 96 | 23 | 1.7 | 1.7 | 0.00 | 0.00 | 0.00 | 30 | 1011.3 |
| 20260904235036 | 96 | 317 | 0.9 | 1.7 | 0.00 | 0.00 | 0.00 | 30 | 1011.2 |
| 20260904234536 | 96 | 356 | 1.7 | 1.7 | 0.00 | 0.00 | 0.00 | 30 | 1011.4 |
| 20260904234033 | 96 | 265 | 2.6 | 2.6 | 0.00 | 0.00 | 0.00 | 30 | 1011.3 |
| 20260904233527 | 96 | 27 | 0.9 | 0.9 | 0.00 | 0.00 | 0.00 | 29 | 1011.5 |
| 20260904233024 | 96 | 53 | 0.9 | 0.9 | 0.00 | 0.00 | 0.00 | 30 | 1011.3 |
| 20260904232520 | 97 | 334 | 0.9 | 0.9 | 0.00 | 0.00 | 0.00 | 29 | 1011.3 |
| 20260904232016 | 96 | 324 | 2.6 | 4.3 | 0.00 | 0.00 | 0.00 | 28 | 1011.5 |
| 20260904231512 | 97 | 333 | 2.6 | 4.3 | 0.00 | 0.00 | 0.00 | 28 | 1011.5 |
| 20260904231006 | 98 | 320 | 3.5 | 4.3 | 0.00 | 0.00 | 0.00 | 27 | 1011.4 |
| 20260904230505 | 98 | 342 | 2.6 | 6.1 | 0.00 | 0.00 | 0.00 | 27 | 1011.7 |
| 20260904230001 | 98 | 234 | 4.3 | 5.2 | 0.00 | 0.00 | 0.00 | 27 | 1011.4 |
| 20260904225459 | 98 | 317 | 5.2 | 7.8 | 0.00 | 0.00 | 0.00 | 26 | 1011.5 |
| 20260904224952 | 98 | 303 | 1.7 | 2.6 | 0.00 | 0.00 | 0.00 | 28 | 1011.6 |
| 20260904224448 | 97 | 250 | 2.6 | 2.6 | 0.00 | 0.00 | 0.00 | 28 | 1011.5 |
| 20260904223948 | 98 | 277 | 3.5 | 5.2 | 0.00 | 0.00 | 0.00 | 27 | 1011.7 |
| 20260904223447 | 98 | 346 | 3.5 | 4.3 | 0.00 | 0.00 | 0.00 | 28 | 1011.8 |
| 20260904222943 | 98 | 281 | 2.6 | 2.6 | 0.00 | 0.00 | 0.00 | 29 | 1011.6 |
| 20260904222439 | 98 | 305 | 2.6 | 4.3 | 0.00 | 0.00 | 0.00 | 29 | 1011.9 |
| 20260904221938 | 98 | 287 | 0.9 | 0.9 | 0.00 | 0.00 | 0.00 | 30 | 1011.4 |
| 20260904221433 | 98 | 333 | 1.7 | 0.9 | 0.00 | 0.00 | 0.00 | 29 | 1011.8 |
| 20260904220929 | 97 | 309 | 1.7 | 1.7 | 0.00 | 0.00 | 0.00 | 31 | 1011.9 |
| 20260904220428 | 97 | 284 | 0.9 | 0.9 | 0.00 | 0.00 | 0.00 | 32 | 1012.0 |
| 20260904215923 | 97 | 258 | 4.3 | 5.2 | 0.00 | 0.00 | 0.00 | 30 | 1011.9 |
| 20260904215418 | 97 | 256 | 4.3 | 7.0 | 0.00 | 0.00 | 0.00 | 31 | 1012.0 |
| 20260904214914 | 97 | 300 | 2.6 | 2.6 | 0.00 | 0.00 | 0.00 | 32 | 1012.0 |
| 20260904214410 | 96 | 318 | 3.5 | 6.1 | 0.00 | 0.00 | 0.00 | 32 | 1012.2 |
| 20260904213909 | 96 | 286 | 3.5 | 4.3 | 0.00 | 0.00 | 0.00 | 33 | 1012.5 |
| 20260904213403 | 96 | 275 | 0.9 | 0.9 | 0.00 | 0.00 | 0.00 | 33 | 1012.2 |
| 20260904212859 | 98 | 265 | 0.9 | 1.7 | 0.00 | 0.00 | 0.00 | 31 | 1012.5 |
| 20260904212358 | 98 | 259 | 1.7 | 1.7 | 0.00 | 0.00 | 0.00 | 30 | 1012.0 |
| 20260904211854 | 98 | 197 | 0.9 | 1.7 | 0.00 | 0.00 | 0.00 | 30 | 1012.4 |
| 20260904211349 | 98 | 266 | 2.6 | 2.6 | 0.00 | 0.00 | 0.00 | 32 | 1012.4 |
| 20260904210844 | 98 | 284 | 1.7 | 1.7 | 0.00 | 0.00 | 0.00 | 29 | 1012.5 |
| 20260904210344 | 97 | 336 | 1.7 | 1.7 | 0.00 | 0.00 | 0.00 | 31 | 1012.6 |
| 20260904205840 | 97 | 267 | 2.6 | 2.6 | 0.00 | 0.00 | 0.00 | 29 | 1012.4 |
| 20260904205335 | 97 | 320 | 1.7 | 1.7 | 0.00 | 0.00 | 0.00 | 31 | 1012.7 |
| 20260904204832 | 95 | 298 | 1.7 | 1.7 | 0.00 | 0.00 | 0.00 | 31 | 1012.5 |
| 20260904204328 | 95 | 56 | 2.6 | 2.6 | 0.00 | 0.00 | 0.00 | 32 | 1012.5 |
| 20260904203824 | 96 | 311 | 1.7 | 1.7 | 0.00 | 0.00 | 0.00 | 32 | 1012.6 |
| 20260904203320 | 96 | 6 | 2.6 | 4.3 | 0.00 | 0.00 | 0.00 | 31 | 1013.0 |
| 20260904202815 | 96 | 358 | 3.5 | 4.3 | 0.00 | 0.00 | 0.00 | 30 | 1013.1 |
| 20260904202311 | 96 | 163 | 0.0 | 0.0 | 0.00 | 0.00 | 0.00 | 30 | 1013.0 |
| 20260904201807 | 96 | 63 | 1.7 | 1.7 | 0.00 | 0.00 | 0.00 | 32 | 1013.3 |
| 20260904201301 | 96 | 292 | 4.3 | 5.2 | 0.00 | 0.00 | 0.00 | 31 | 1013.2 |
| 20260904200756 | 95 | 317 | 0.9 | 0.9 | 0.00 | 0.00 | 0.00 | 30 | 1013.2 |
| 20260904200250 | 95 | 53 | 2.6 | 2.6 | 0.00 | 0.00 | 0.00 | 32 | 1013.4 |
| 20260904195749 | 95 | 314 | 2.6 | 4.3 | 0.00 | 0.00 | 0.00 | 33 | 1013.5 |